Regional Weather Roundup
Issued by NWS Cleveland, OH

Home | Current Version | Previous Version | Text Only | Print | Product List | Glossary Off
Versions: 1 2 3 4 5 6 7 8 9 10 11 12 13 14 15 16 17 18 19 20 21 22 23 24 25 26 27 28 29 30 31 32 33 34 35 36 37 38 39 40 41 42 43 44 45 46 47 48 49 50

000
ASUS41 KCLE 051410
RWRCLE
OHIO REGIONAL WEATHER ROUNDUP
NATIONAL WEATHER SERVICE CLEVELAND, OH
900 AM EST THU MAR 05 2015

NOTE: "FAIR" INDICATES FEW OR NO CLOUDS BELOW 12,000 FEET WITH NO
SIGNIFICANT WEATHER AND/OR OBSTRUCTIONS TO VISIBILITY.

OHZ001>008-015>018-024>027-034-035-043-044-051500-
   NORTHWEST OHIO

CITY           SKY/WX    TMP DP  RH WIND       PRES   REMARKS
DEFIANCE       PTSUNNY   14   1  56 N9        30.38R WCI   2
FINDLAY        PTSUNNY   16   4  59 N8        30.33S WCI   5
TOLEDO EXPRESS MOSUNNY   12   2  64 N7        30.35F WCI   1
TOLEDO EXEC    PTSUNNY   13   2  61 NE7       30.37S WCI   3
LIMA           PTSUNNY   15   3  59 N8        30.32F WCI   4
$$

OHZ009>014-019>023-028>033-038-089-051500-
   NORTHEAST OHIO

CITY           SKY/WX    TMP DP  RH WIND       PRES   REMARKS
CLE-HOPKINS    CLOUDY    12   3  67 NE12      30.35S WCI  -2
CLE-LAKEFRONT  CLOUDY    12   2  64 NE10      30.34S WCI  -1
CUY CO. ARPT   CLOUDY    12   7  79 NE12      30.34R WCI  -2
LORAIN-ELYRIA  PTSUNNY   11   4  73 E13       30.32S WCI  -4
ASHTABULA      CLOUDY    10   0  63 N7        30.34R WCI  -1
AKRON-CANTON   CLOUDY    14   3  61 N13       30.27R WCI   0
WOOSTER        CLOUDY    13   4  67 N10       30.27S WCI   0
MANSFIELD      CLOUDY    13   2  61 NE10      30.24F WCI   0
YOUNGSTOWN     CLOUDY    11   0  61 N12       30.28R WCI  -3
$$

OHZ042-051>053-060>062-070>072-077>081-051500-
  SOUTHWEST OHIO

CITY           SKY/WX    TMP DP  RH WIND       PRES   REMARKS
CINC-COVINGTON CLOUDY    19   9  65 N9        30.35R WCI   8
CINC-LUNKEN    CLOUDY    19   9  65 N7        30.39R WCI  10
HAMILTON       CLOUDY    20   6  55 N9        30.39R WCI   9
DAYTON         CLOUDY    17   3  54 N9        30.36R WCI   6
WRIGHT-PAT AFB CLOUDY    17   4  56 N9        30.35R WCI   6
DAYTON GENERAL CLOUDY    17   3  54 N9        30.33R WCI   6
WILMINGTON     CLOUDY    17   2  51 N10       30.30R WCI   5
$$

OHZ036-037-039>041-045>050-054>059-063>069-073>076-082>088-051500-
  CENTRAL AND SOUTHEAST OHIO

CITY           SKY/WX    TMP DP  RH WIND       PRES   REMARKS
COLUMBUS       CLOUDY    17   4  56 N12       30.29R WCI   4
OSU AIRPORT    CLOUDY    17   5  59 N14       30.29R WCI   3
BOLTON FIELD   CLOUDY    18   7  62 N9        30.32R WCI   6
RICKENBACK AFB CLOUDY    18   6  61 N9        30.29R WCI   7
NEWARK         CLOUDY    19   6  57 N6        30.27S WCI  11
MARION         CLOUDY    15   4  61 N12       30.30S WCI   2
LANCASTER      CLOUDY    19   8  62 N8        30.27S WCI   9
ZANESVILLE     CLOUDY    17  10  74 NE5       30.26F WCI  10
NEW PHILLY     CLOUDY    18   7  62 N7G17     30.28S WCI   9
$$


USA.gov is the U.S. government's official web portal to all federal, state and local government web resources and services.